QPF
0.02 0.02 0.02 0.01 0.01 0.01 0.01 0.01 0.02 0.02 0.01 0.01 0.01 0.01 0.01 0.00 0.00 0.00 0.01 0.02 0.03 0.04 0.04 0.04 0.03 0.02 0.02 0.02 0.02 0.02 0.02 0.03 0.05 0.08 0.09 0.08 0.08 0.08
0.01 0.01 0.01 0.01 0.01 0.01 0.01 0.01 0.01 0.02 0.02 0.01 0.01 0.01 0.00 0.00 0.00 0.00 0.01 0.01 0.02 0.02 0.03 0.04 0.03 0.02 0.02 0.02 0.01 0.02 0.02 0.02 0.02 0.02 0.04 0.06 0.07 0.07
0.01 0.01 0.01 0.01 0.01 0.00 0.01 0.01 0.01 0.01 0.02 0.02 0.01 0.01 0.00 0.01 0.00 0.00 0.00 0.00 0.00 0.01 0.02 0.02 0.03 0.03 0.02 0.02 0.02 0.02 0.01 0.01 0.01 0.01 0.02 0.03 0.03 0.05
0.02 0.01 0.01 0.01 0.01 0.01 0.01 0.01 0.01 0.01 0.01 0.02 0.01 0.01 0.01 0.01 0.01 0.01 0.00 0.00 0.01 0.01 0.02 0.03 0.03 0.03 0.02 0.02 0.02 0.02 0.01 0.01 0.01 0.01 0.01 0.01 0.02 0.03
0.02 0.02 0.01 0.01 0.01 0.01 0.01 0.01 0.01 0.01 0.01 0.01 0.01 0.01 0.00 0.01 0.01 0.01 0.01 0.01 0.01 0.01 0.01 0.02 0.03 0.03 0.03 0.02 0.01 0.02 0.02 0.02 0.01 0.01 0.01 0.01 0.01 0.02
0.01 0.02 0.01 0.01 0.01 0.01 0.01 0.01 0.01 0.01 0.01 0.01 0.01 0.01 0.00 0.01 0.01 0.02 0.01 0.01 0.01 0.01 0.01 0.01 0.03 0.03 0.03 0.02 0.01 0.01 0.02 0.03 0.03 0.02 0.01 0.01 0.01 0.01
0.01 0.01 0.01 0.00 0.00 0.01 0.00 0.01 0.01 0.01 0.01 0.01 0.01 0.01 0.01 0.01 0.01 0.01 0.01 0.01 0.01 0.01 0.02 0.01 0.02 0.02 0.02 0.02 0.02 0.02 0.02 0.02 0.02 0.02 0.02 0.02 0.01 0.01
0.01 0.01 0.00 0.00 0.00 0.01 0.01 0.01 0.01 0.02 0.02 0.02 0.02 0.02 0.02 0.01 0.01 0.02 0.02 0.02 0.02 0.02 0.02 0.02 0.02 0.02 0.03 0.02 0.02 0.02 0.02 0.02 0.02 0.02 0.02 0.03 0.03 0.03
0.01 0.01 0.01 0.01 0.01 0.01 0.01 0.01 0.01 0.01 0.02 0.02 0.02 0.03 0.03 0.03 0.02 0.01 0.02 0.02 0.03 0.02 0.02 0.04 0.04 0.03 0.02 0.02 0.03 0.02 0.02 0.03 0.04 0.04 0.04 0.04 0.04 0.03
0.01 0.01 0.01 0.02 0.02 0.02 0.02 0.02 0.01 0.01 0.01 0.01 0.02 0.03 0.03 0.03 0.03 0.02 0.03 0.02 0.03 0.03 0.02 0.03 0.03 0.03 0.02 0.02 0.03 0.03 0.02 0.02 0.04 0.05 0.05 0.06 0.05 0.03
0.02 0.01 0.01 0.01 0.02 0.02 0.02 0.02 0.02 0.02 0.02 0.02 0.02 0.01 0.01 0.01 0.01 0.01 0.02 0.02 0.02 0.03 0.02 0.02 0.02 0.02 0.03 0.02 0.02 0.02 0.03 0.03 0.03 0.04 0.05 0.05 0.05 0.05
0.02 0.02 0.02 0.02 0.02 0.02 0.01 0.01 0.02 0.02 0.02 0.02 0.01 0.02 0.01 0.01 0.01 0.02 0.02 0.03 0.04 0.04 0.04 0.03 0.03 0.02 0.02 0.02 0.01 0.02 0.04 0.05 0.05 0.04 0.03 0.04 0.04 0.04
0.02 0.02 0.02 0.03 0.02 0.02 0.01 0.01 0.01 0.01 0.01 0.02 0.02 0.02 0.02 0.02 0.02 0.02 0.02 0.03 0.04 0.05 0.06 0.05 0.05 0.04 0.04 0.03 0.02 0.02 0.02 0.03 0.04 0.04 0.04 0.04 0.04 0.03
0.03 0.03 0.03 0.03 0.02 0.01 0.01 0.01 0.01 0.01 0.01 0.01 0.01 0.02 0.02 0.02 0.03 0.03 0.03 0.03 0.03 0.04 0.05 0.05 0.05 0.05 0.05 0.04 0.03 0.02 0.02 0.03 0.04 0.04 0.04 0.05 0.05 0.04
0.04 0.04 0.04 0.03 0.02 0.02 0.01 0.01 0.01 0.01 0.01 0.02 0.02 0.02 0.02 0.02 0.02 0.02 0.02 0.02 0.02 0.03 0.03 0.03 0.04 0.04 0.04 0.04 0.03 0.03 0.03 0.04 0.05 0.05 0.04 0.05 0.05 0.05
0.06 0.04 0.03 0.03 0.03 0.03 0.02 0.01 0.01 0.01 0.01 0.02 0.02 0.02 0.02 0.02 0.02 0.02 0.02 0.01 0.02 0.02 0.02 0.02 0.03 0.03 0.03 0.04 0.04 0.05 0.05 0.05 0.05 0.06 0.06 0.06 0.06 0.06
0.06 0.05 0.05 0.04 0.04 0.02 0.01 0.01 0.02 0.01 0.01 0.01 0.02 0.02 0.02 0.02 0.02 0.02 0.02 0.02 0.01 0.02 0.02 0.02 0.02 0.03 0.04 0.04 0.05 0.05 0.04 0.05 0.06 0.07 0.07 0.08 0.08 0.06
0.06 0.06 0.05 0.04 0.02 0.02 0.02 0.02 0.03 0.02 0.02 0.03 0.03 0.03 0.02 0.02 0.02 0.01 0.01 0.01 0.02 0.02 0.02 0.02 0.03 0.04 0.04 0.04 0.04 0.04 0.05 0.05 0.05 0.06 0.06 0.06 0.08 0.08
0.05 0.04 0.03 0.02 0.01 0.01 0.01 0.02 0.02 0.02 0.02 0.03 0.03 0.03 0.03 0.02 0.02 0.02 0.02 0.02 0.02 0.02 0.03 0.03 0.04 0.05 0.06 0.06 0.05 0.05 0.05 0.06 0.07 0.08 0.07 0.06 0.07 0.08
0.03 0.03 0.02 0.02 0.01 0.01 0.02 0.02 0.02 0.02 0.03 0.03 0.04 0.05 0.05 0.05 0.04 0.04 0.05 0.05 0.05 0.05 0.05 0.06 0.07 0.08 0.09 0.10 0.11 0.10 0.09 0.08 0.08 0.08 0.08 0.07 0.06 0.07
0.02 0.02 0.02 0.02 0.02 0.02 0.03 0.03 0.03 0.04 0.06 0.07 0.09 0.09 0.08 0.07 0.07 0.06 0.06 0.07 0.06 0.06 0.07 0.08 0.08 0.08 0.09 0.11 0.13 0.11 0.09 0.06 0.05 0.05 0.05 0.05 0.05 0.07
0.02 0.02 0.02 0.03 0.03 0.03 0.03 0.03 0.04 0.05 0.06 0.07 0.07 0.06 0.06 0.06 0.05 0.06 0.06 0.07 0.07 0.08 0.08 0.08 0.08 0.07 0.07 0.07 0.08 0.08 0.08 0.06 0.05 0.05 0.05 0.06 0.06 0.07
0.04 0.04 0.03 0.02 0.02 0.03 0.03 0.03 0.04 0.04 0.05 0.05 0.05 0.06 0.05 0.05 0.05 0.06 0.07 0.09 0.10 0.10 0.09 0.08 0.08 0.07 0.06 0.06 0.07 0.07 0.06 0.06 0.05 0.06 0.06 0.07 0.06 0.06
MSLP
1015.63 1015.62 1015.65 1015.69 1015.71 1015.69 1015.62 1015.48 1015.29 1015.08 1014.89 1014.75 1014.72 1014.82 1015.06 1015.43 1015.89 1016.40 1016.91 1017.36 1017.71 1017.94 1018.03 1017.99 1017.85 1017.64 1017.40 1017.14 1016.90 1016.68 1016.46 1016.24 1015.97 1015.63 1015.19 1014.62 1013.93 1013.12
1015.38 1015.37 1015.39 1015.44 1015.47 1015.48 1015.43 1015.32 1015.17 1014.99 1014.83 1014.71 1014.70 1014.80 1015.04 1015.39 1015.83 1016.33 1016.82 1017.27 1017.62 1017.85 1017.96 1017.95 1017.84 1017.67 1017.45 1017.22 1017.01 1016.80 1016.59 1016.37 1016.09 1015.74 1015.29 1014.71 1014.01 1013.18
1015.02 1015.01 1015.03 1015.08 1015.13 1015.15 1015.14 1015.08 1014.97 1014.85 1014.73 1014.67 1014.68 1014.81 1015.04 1015.38 1015.79 1016.25 1016.71 1017.12 1017.45 1017.68 1017.80 1017.82 1017.75 1017.63 1017.48 1017.31 1017.15 1016.98 1016.81 1016.61 1016.35 1016.01 1015.57 1015.00 1014.32 1013.52
1014.57 1014.55 1014.58 1014.63 1014.69 1014.74 1014.76 1014.74 1014.69 1014.63 1014.59 1014.58 1014.65 1014.80 1015.04 1015.37 1015.75 1016.16 1016.57 1016.93 1017.22 1017.43 1017.56 1017.61 1017.59 1017.54 1017.47 1017.38 1017.30 1017.20 1017.08 1016.92 1016.70 1016.39 1015.98 1015.45 1014.81 1014.08
1014.05 1014.05 1014.08 1014.14 1014.21 1014.27 1014.32 1014.34 1014.35 1014.35 1014.38 1014.44 1014.56 1014.75 1015.01 1015.32 1015.68 1016.04 1016.38 1016.69 1016.94 1017.12 1017.25 1017.33 1017.37 1017.39 1017.41 1017.42 1017.42 1017.41 1017.37 1017.26 1017.09 1016.82 1016.46 1016.00 1015.44 1014.81
1013.54 1013.57 1013.61 1013.68 1013.75 1013.81 1013.87 1013.92 1013.96 1014.02 1014.11 1014.23 1014.41 1014.63 1014.91 1015.21 1015.53 1015.85 1016.14 1016.39 1016.59 1016.75 1016.88 1016.98 1017.08 1017.18 1017.29 1017.40 1017.50 1017.58 1017.62 1017.58 1017.47 1017.26 1016.97 1016.58 1016.12 1015.61
1013.11 1013.17 1013.23 1013.30 1013.37 1013.43 1013.48 1013.54 1013.60 1013.69 1013.81 1013.97 1014.18 1014.43 1014.71 1015.01 1015.30 1015.57 1015.81 1016.00 1016.17 1016.31 1016.44 1016.58 1016.73 1016.91 1017.11 1017.32 1017.52 1017.68 1017.80 1017.84 1017.80 1017.66 1017.44 1017.14 1016.79 1016.40
1012.78 1012.89 1012.98 1013.06 1013.12 1013.17 1013.21 1013.25 1013.31 1013.40 1013.52 1013.70 1013.91 1014.16 1014.43 1014.71 1014.96 1015.19 1015.38 1015.55 1015.68 1015.81 1015.96 1016.13 1016.33 1016.58 1016.86 1017.16 1017.45 1017.71 1017.90 1018.02 1018.05 1017.98 1017.84 1017.63 1017.38 1017.12
1012.56 1012.73 1012.86 1012.96 1013.03 1013.06 1013.08 1013.09 1013.12 1013.18 1013.28 1013.43 1013.62 1013.84 1014.08 1014.32 1014.53 1014.73 1014.89 1015.02 1015.14 1015.28 1015.44 1015.65 1015.91 1016.22 1016.58 1016.96 1017.33 1017.66 1017.93 1018.11 1018.21 1018.22 1018.15 1018.02 1017.87 1017.71
1012.41 1012.64 1012.84 1012.97 1013.05 1013.08 1013.08 1013.06 1013.04 1013.05 1013.10 1013.19 1013.33 1013.50 1013.68 1013.87 1014.04 1014.20 1014.33 1014.46 1014.58 1014.73 1014.92 1015.18 1015.49 1015.86 1016.29 1016.73 1017.16 1017.56 1017.89 1018.13 1018.29 1018.36 1018.36 1018.31 1018.23 1018.17
1012.23 1012.56 1012.82 1013.00 1013.12 1013.16 1013.15 1013.10 1013.04 1013.00 1012.98 1013.00 1013.06 1013.15 1013.27 1013.40 1013.53 1013.66 1013.78 1013.90 1014.04 1014.22 1014.45 1014.75 1015.11 1015.53 1016.00 1016.49 1016.97 1017.41 1017.78 1018.08 1018.28 1018.41 1018.47 1018.48 1018.47 1018.47
1011.97 1012.38 1012.72 1012.98 1013.14 1013.21 1013.21 1013.15 1013.06 1012.97 1012.88 1012.83 1012.81 1012.83 1012.88 1012.95 1013.04 1013.14 1013.25 1013.39 1013.56 1013.77 1014.04 1014.38 1014.78 1015.24 1015.73 1016.25 1016.75 1017.22 1017.62 1017.95 1018.19 1018.37 1018.48 1018.54 1018.59 1018.64
1011.57 1012.06 1012.48 1012.81 1013.04 1013.16 1013.18 1013.13 1013.03 1012.90 1012.77 1012.65 1012.57 1012.52 1012.51 1012.54 1012.59 1012.68 1012.80 1012.95 1013.15 1013.40 1013.71 1014.08 1014.50 1014.97 1015.48 1016.00 1016.50 1016.97 1017.39 1017.73 1018.01 1018.21 1018.37 1018.49 1018.59 1018.69
1011.04 1011.59 1012.08 1012.47 1012.76 1012.93 1013.00 1012.98 1012.89 1012.75 1012.59 1012.44 1012.32 1012.22 1012.18 1012.17 1012.21 1012.30 1012.43 1012.61 1012.83 1013.11 1013.44 1013.82 1014.26 1014.72 1015.21 1015.71 1016.20 1016.65 1017.06 1017.41 1017.70 1017.95 1018.14 1018.31 1018.46 1018.62
1010.40 1010.99 1011.52 1011.96 1012.30 1012.52 1012.63 1012.65 1012.59 1012.47 1012.32 1012.17 1012.03 1011.92 1011.86 1011.85 1011.89 1011.99 1012.14 1012.33 1012.58 1012.87 1013.21 1013.59 1014.00 1014.44 1014.90 1015.35 1015.80 1016.22 1016.62 1016.97 1017.28 1017.56 1017.80 1018.02 1018.23 1018.45
1009.73 1010.32 1010.84 1011.30 1011.66 1011.92 1012.08 1012.14 1012.12 1012.05 1011.93 1011.81 1011.69 1011.61 1011.56 1011.56 1011.62 1011.73 1011.90 1012.11 1012.36 1012.65 1012.98 1013.33 1013.70 1014.09 1014.49 1014.90 1015.30 1015.69 1016.06 1016.42 1016.75 1017.07 1017.37 1017.65 1017.93 1018.21
1009.08 1009.62 1010.12 1010.55 1010.91 1011.18 1011.36 1011.47 1011.51 1011.49 1011.43 1011.37 1011.30 1011.26 1011.26 1011.30 1011.38 1011.51 1011.69 1011.90 1012.14 1012.41 1012.70 1013.01 1013.32 1013.65 1013.99 1014.34 1014.69 1015.05 1015.42 1015.79 1016.15 1016.52 1016.88 1017.24 1017.59 1017.94
1008.48 1008.94 1009.36 1009.73 1010.06 1010.32 1010.52 1010.67 1010.76 1010.81 1010.84 1010.85 1010.87 1010.90 1010.95 1011.04 1011.16 1011.31 1011.48 1011.68 1011.90 1012.13 1012.36 1012.60 1012.85 1013.11 1013.39 1013.69 1014.01 1014.35 1014.73 1015.12 1015.54 1015.97 1016.41 1016.84 1017.28 1017.71
1007.88 1008.24 1008.56 1008.86 1009.13 1009.37 1009.59 1009.77 1009.92 1010.05 1010.17 1010.28 1010.39 1010.51 1010.63 1010.77 1010.93 1011.10 1011.27 1011.44 1011.62 1011.79 1011.96 1012.13 1012.31 1012.51 1012.73 1012.99 1013.30 1013.65 1014.05 1014.49 1014.97 1015.48 1016.00 1016.52 1017.04 1017.54
1007.23 1007.47 1007.70 1007.92 1008.13 1008.35 1008.57 1008.79 1009.02 1009.24 1009.46 1009.67 1009.89 1010.10 1010.30 1010.50 1010.69 1010.87 1011.03 1011.17 1011.30 1011.41 1011.52 1011.62 1011.74 1011.88 1012.07 1012.31 1012.61 1012.99 1013.43 1013.94 1014.50 1015.09 1015.69 1016.30 1016.89 1017.45
1006.42 1006.57 1006.72 1006.87 1007.05 1007.25 1007.49 1007.76 1008.06 1008.38 1008.71 1009.04 1009.36 1009.67 1009.95 1010.21 1010.43 1010.62 1010.77 1010.88 1010.96 1011.02 1011.06 1011.11 1011.17 1011.28 1011.44 1011.68 1012.00 1012.42 1012.91 1013.49 1014.12 1014.79 1015.48 1016.16 1016.82 1017.43
1005.42 1005.51 1005.60 1005.71 1005.87 1006.09 1006.36 1006.70 1007.08 1007.49 1007.93 1008.37 1008.80 1009.20 1009.56 1009.87 1010.13 1010.33 1010.47 1010.56 1010.61 1010.62 1010.62 1010.63 1010.66 1010.75 1010.90 1011.15 1011.49 1011.95 1012.49 1013.13 1013.83 1014.57 1015.32 1016.06 1016.76 1017.42
1004.25 1004.30 1004.36 1004.47 1004.64 1004.89 1005.21 1005.61 1006.07 1006.58 1007.12 1007.66 1008.18 1008.66 1009.09 1009.46 1009.75 1009.98 1010.12 1010.21 1010.24 1010.23 1010.21 1010.20 1010.22 1010.30 1010.46 1010.72 1011.08 1011.56 1012.15 1012.82 1013.56 1014.35 1015.14 1015.91 1016.65 1017.32
Thickness
5755 5753 5751 5751 5750 5748 5745 5741 5734 5728 5726 5725 5723 5721 5717 5713 5707 5705 5702 5698 5695 5694 5692 5691 5689 5688 5687 5686 5684 5683 5681 5680 5678 5677 5676 5675 5674 5673
5752 5749 5748 5750 5748 5745 5743 5741 5737 5731 5726 5726 5722 5721 5714 5712 5705 5703 5700 5696 5693 5691 5689 5687 5685 5684 5683 5681 5680 5679 5677 5675 5674 5673 5671 5670 5669 5668
5751 5749 5746 5745 5745 5743 5741 5738 5734 5730 5723 5722 5721 5717 5710 5707 5704 5701 5699 5696 5693 5688 5686 5683 5682 5680 5678 5677 5675 5674 5672 5671 5669 5668 5666 5665 5664 5662
5749 5747 5745 5744 5740 5739 5737 5734 5731 5727 5723 5717 5716 5713 5707 5704 5702 5699 5699 5697 5693 5687 5683 5680 5678 5676 5675 5673 5671 5669 5668 5666 5664 5662 5661 5659 5658 5657
5748 5745 5742 5740 5736 5736 5732 5731 5729 5727 5722 5717 5714 5710 5707 5704 5699 5697 5696 5692 5691 5687 5681 5678 5675 5673 5671 5669 5667 5665 5663 5662 5660 5658 5656 5654 5652 5651
5746 5743 5741 5738 5734 5732 5730 5727 5725 5722 5719 5716 5712 5708 5705 5701 5697 5694 5692 5690 5688 5687 5682 5678 5674 5670 5668 5665 5663 5661 5658 5657 5655 5653 5651 5649 5647 5645
5744 5742 5739 5735 5731 5728 5727 5724 5721 5718 5716 5713 5710 5706 5702 5697 5695 5694 5690 5689 5686 5684 5680 5678 5674 5671 5667 5663 5660 5657 5655 5653 5650 5648 5646 5644 5642 5640
5741 5739 5737 5732 5729 5724 5721 5717 5715 5713 5711 5709 5707 5702 5698 5697 5693 5691 5688 5684 5681 5682 5677 5676 5674 5671 5668 5665 5660 5655 5652 5649 5646 5644 5642 5639 5637 5635
5738 5735 5735 5734 5727 5725 5719 5714 5711 5707 5704 5704 5702 5699 5697 5694 5690 5687 5683 5680 5678 5679 5674 5672 5671 5668 5666 5663 5657 5653 5649 5646 5643 5640 5638 5635 5632 5630
5736 5733 5730 5728 5725 5720 5718 5715 5712 5709 5704 5700 5699 5697 5695 5691 5687 5684 5681 5677 5675 5673 5670 5667 5667 5666 5665 5660 5655 5650 5646 5643 5640 5637 5634 5631 5629 5626
5733 5730 5726 5724 5718 5713 5712 5710 5708 5707 5702 5698 5694 5692 5688 5685 5682 5680 5677 5673 5671 5670 5668 5663 5663 5662 5660 5658 5653 5647 5643 5640 5637 5634 5631 5628 5625 5621
5730 5727 5720 5717 5712 5707 5706 5705 5702 5702 5701 5697 5692 5688 5686 5682 5678 5675 5673 5670 5668 5666 5665 5660 5658 5656 5654 5655 5652 5646 5641 5638 5634 5631 5628 5625 5621 5617
5728 5725 5720 5711 5705 5701 5698 5699 5697 5695 5696 5695 5692 5689 5685 5682 5678 5673 5670 5667 5664 5662 5662 5656 5653 5650 5648 5647 5647 5645 5641 5638 5633 5629 5625 5621 5617 5614
5722 5721 5715 5706 5700 5695 5693 5691 5689 5687 5691 5691 5689 5686 5683 5679 5676 5672 5667 5663 5660 5657 5655 5651 5647 5644 5642 5640 5640 5640 5638 5635 5632 5628 5624 5619 5613 5610
5716 5710 5704 5698 5694 5691 5687 5685 5682 5684 5685 5684 5682 5681 5679 5676 5672 5668 5664 5659 5655 5652 5649 5644 5641 5640 5637 5636 5635 5634 5632 5630 5627 5624 5621 5617 5613 5608
5707 5702 5695 5691 5688 5686 5685 5682 5681 5683 5681 5679 5678 5676 5674 5671 5667 5664 5659 5656 5651 5649 5646 5641 5637 5634 5632 5630 5629 5628 5626 5624 5622 5619 5616 5614 5610 5607
5700 5698 5695 5692 5689 5687 5686 5684 5681 5679 5676 5675 5672 5670 5667 5665 5662 5659 5654 5651 5646 5643 5641 5638 5634 5629 5626 5624 5623 5622 5621 5620 5618 5614 5610 5608 5607 5604
5691 5692 5690 5688 5685 5684 5683 5681 5678 5676 5673 5670 5667 5664 5661 5659 5655 5653 5649 5645 5642 5639 5636 5633 5629 5624 5620 5619 5615 5615 5615 5614 5611 5608 5604 5602 5600 5598
5685 5688 5686 5684 5682 5680 5678 5676 5674 5672 5668 5665 5661 5658 5655 5653 5650 5647 5643 5640 5637 5634 5632 5628 5623 5618 5614 5613 5615 5610 5608 5607 5605 5602 5599 5596 5594 5592
5682 5682 5680 5679 5676 5673 5671 5669 5667 5664 5660 5658 5655 5652 5649 5645 5643 5640 5638 5634 5631 5627 5625 5622 5619 5615 5612 5610 5608 5606 5602 5601 5599 5596 5593 5590 5588 5585
5677 5675 5674 5672 5669 5666 5663 5660 5658 5654 5652 5649 5647 5644 5641 5638 5636 5634 5631 5626 5623 5622 5619 5617 5616 5611 5608 5604 5601 5601 5600 5594 5592 5589 5586 5583 5581 5578
5670 5668 5667 5664 5661 5658 5655 5651 5648 5646 5643 5641 5638 5635 5633 5631 5629 5627 5624 5621 5618 5617 5615 5613 5610 5607 5603 5600 5598 5597 5594 5590 5585 5581 5578 5576 5574 5571
5663 5660 5658 5655 5653 5649 5647 5644 5640 5638 5635 5632 5629 5627 5624 5622 5620 5619 5616 5615 5613 5611 5608 5606 5604 5601 5599 5595 5592 5590 5588 5584 5581 5576 5572 5568 5564 5561